Weather History for KT82 - January, 2014

Change the Weather History Date:

Wednesday, January 1, 2014

  Actual Average (KSAT) Record (KSAT)
Temperature  
Mean Temperature 48 °F 51 °F  
Max Temperature 64 °F 62 °F 83 °F (2006)
Min Temperature 33 °F 40 °F 19 °F (1928)
Degree Days  
Heating Degree Days 16 14  
Month to date heating degree days 14  
Since 1 July heating degree days 616  
Cooling Degree Days 0 0  
Month to date cooling degree days 0  
Year to date cooling degree days 0  
Moisture  
Dew Point 40 °F    
Average Humidity 75    
Maximum Humidity 97    
Minimum Humidity 59    
Precipitation  
Precipitation 0.00 in 0.06 in 1.78 in (1944)
Month to date precipitation 0.06  
Year to date precipitation 0.06  
Snow  
Snow 0.00 in - - ()
Month to date snowfall  
Since 1 July snowfall  
Snow Depth -    
Sea Level Pressure  
Sea Level Pressure 30.09 in    
Wind  
Wind Speed 6 mph (SW)    
Max Wind Speed 26 mph    
Max Gust Speed 33 mph    
Visibility 10 miles    
Events      
T = Trace of Precipitation, MM = Missing Value Source: NWS Daily Summary

Daily Weather History Graph

Daily Weather History Graph

Search for Another Location

Airport or City:

Trip Planner

Search our weather history database for the weather conditions in past years. The results will help you decide how hot, cold, wet, or windy it might be!

Date:

Astronomy

Jan. 01, 2014 Rise Set
Actual Time 7:32 AM CST 5:46 PM CST
Civil Twilight 7:05 AM CST 6:12 PM CST
Nautical Twilight 6:35 AM CST 6:42 PM CST
Astronomical Twilight 6:06 AM CST 7:12 PM CST
Moon 7:28 AM CST (1/1) 6:27 PM CST (1/1)
Length of Visible Light 11h 07m
Length of Day
10h 14m
New Moon, 0% of the Moon is Illuminated
Jan 1
New Moon
Jan 7
First Quarter
Jan 15
Full
Jan 23
Last Quarter
Jan 30
New

Hourly Weather History & Observations

Time (CST) Temp. Windchill Dew Point Humidity Pressure Visibility Wind Dir Wind Speed Gust Speed Precip Events Conditions
12:15 AM 39.2 °F 35.9 °F 30.9 °F 72% 30.21 in 10.0 mi WSW 4.6 mph - N/A   Clear
12:35 AM 36.9 °F - 30.6 °F 78% 30.20 in 10.0 mi Calm Calm - N/A   Clear
12:55 AM 35.6 °F - 30.7 °F 82% 30.20 in 10.0 mi Calm Calm - N/A   Clear
1:15 AM 35.2 °F - 30.6 °F 83% 30.19 in 10.0 mi Calm Calm - N/A   Clear
1:35 AM 33.8 °F - 30.4 °F 87% 30.18 in 10.0 mi Calm Calm - N/A   Clear
1:55 AM 33.8 °F - 30.4 °F 87% 30.18 in 10.0 mi Calm Calm - N/A   Clear
2:15 AM 33.8 °F - 30.2 °F 87% 30.18 in 10.0 mi Calm Calm - N/A   Clear
2:35 AM 35.2 °F 30.3 °F 30.2 °F 82% 30.17 in 10.0 mi SW 5.8 mph - N/A   Clear
2:55 AM 36.9 °F 32.2 °F 30.2 °F 77% 30.16 in 10.0 mi WSW 5.8 mph - N/A   Clear
3:15 AM 36.9 °F 32.2 °F 30.0 °F 76% 30.15 in 10.0 mi WSW 5.8 mph - N/A   Clear
3:35 AM 37.4 °F 31.4 °F 29.8 °F 74% 30.16 in 10.0 mi SW 8.1 mph - N/A   Clear
3:55 AM 37.4 °F 32.1 °F 29.5 °F 73% 30.15 in 10.0 mi WSW 6.9 mph - N/A   Clear
4:15 AM 37.0 °F 33.3 °F 29.5 °F 74% 30.14 in 10.0 mi SW 4.6 mph - N/A   Clear
4:35 AM 36.7 °F - 29.3 °F 75% 30.14 in 10.0 mi Calm Calm - N/A   Clear
4:55 AM 36.5 °F - 29.1 °F 75% 30.13 in 10.0 mi Calm Calm - N/A   Clear
5:15 AM 36.5 °F 33.9 °F 28.8 °F 74% 30.13 in 10.0 mi West 3.5 mph - N/A   Clear
5:35 AM 36.5 °F 32.7 °F 28.4 °F 72% 30.13 in 10.0 mi WNW 4.6 mph - N/A   Clear
5:55 AM 36.5 °F - 28.2 °F 72% 30.13 in 10.0 mi Calm Calm - N/A   Clear
6:15 AM 35.6 °F - 28.0 °F 74% 30.13 in 10.0 mi Calm Calm - N/A   Clear
6:35 AM 33.3 °F 30.2 °F 27.9 °F 81% 30.12 in 10.0 mi NW 3.5 mph - N/A   Clear
6:55 AM 34.7 °F - 27.5 °F 75% 30.12 in 10.0 mi Calm Calm - N/A   Clear
7:15 AM 34.9 °F - 27.7 °F 75% 30.12 in 10.0 mi Calm Calm - N/A   Clear
7:35 AM 33.4 °F - 27.5 °F 79% 30.12 in 10.0 mi Calm Calm - N/A   Clear
7:55 AM 36.7 °F 32.9 °F 27.5 °F 69% 30.12 in 10.0 mi WSW 4.6 mph - N/A   Clear
8:15 AM 38.3 °F 34.8 °F 27.7 °F 66% 30.12 in 10.0 mi SW 4.6 mph - N/A   Clear
8:35 AM 40.5 °F 37.3 °F 28.9 °F 64% 30.13 in 10.0 mi SW 4.6 mph - N/A   Clear
8:55 AM 43.0 °F 39.5 °F 31.3 °F 63% 30.13 in 10.0 mi SSW 5.8 mph - N/A   Clear
9:15 AM 45.5 °F 40.3 °F 34.2 °F 65% 30.13 in 10.0 mi SW 10.4 mph - N/A   Clear
9:35 AM 47.5 °F - 36.7 °F 66% 30.13 in 10.0 mi SW 8.1 mph - N/A   Clear
9:55 AM 50.4 °F - 39.0 °F 65% 30.13 in 10.0 mi SSW 9.2 mph - N/A   Clear
10:15 AM 52.9 °F - 41.4 °F 65% 30.13 in 10.0 mi SSW 10.4 mph - N/A   Clear
10:35 AM 55.9 °F - 44.4 °F 65% 30.13 in 10.0 mi SW 11.5 mph - N/A   Scattered Clouds
10:55 AM 56.7 °F - 45.0 °F 65% 30.12 in 10.0 mi SSW 17.3 mph 23.0 mph N/A   Clear
11:15 AM 57.2 °F - 45.3 °F 65% 30.11 in 10.0 mi SW 12.7 mph 20.7 mph N/A   Clear
11:35 AM 58.6 °F - 46.9 °F 65% 30.10 in 10.0 mi SW 16.1 mph 21.9 mph N/A   Clear
11:55 AM 60.4 °F - 48.0 °F 64% 30.09 in 10.0 mi SSW 17.3 mph 21.9 mph N/A   Clear
12:15 PM 61.0 °F - 48.7 °F 64% 30.07 in 10.0 mi SSW 16.1 mph 27.6 mph N/A   Clear
12:35 PM 62.1 °F - 49.1 °F 62% 30.06 in 10.0 mi SW 18.4 mph 26.5 mph N/A   Clear
12:55 PM 63.0 °F - 48.9 °F 60% 30.05 in 10.0 mi SSW 18.4 mph 23.0 mph N/A   Clear
1:15 PM 63.9 °F - 49.5 °F 59% 30.04 in 10.0 mi SSW 18.4 mph 27.6 mph N/A   Clear
1:35 PM 64.2 °F - 50.0 °F 60% 30.03 in 10.0 mi SW 23.0 mph 31.1 mph N/A   Clear
1:55 PM 63.5 °F - 50.0 °F 61% 30.02 in 10.0 mi SSW 21.9 mph 28.8 mph N/A   Scattered Clouds
2:15 PM 62.8 °F - 50.4 °F 64% 30.02 in 10.0 mi SW 26.5 mph 33.4 mph N/A   Clear
2:35 PM 63.1 °F - 50.5 °F 63% 30.01 in 10.0 mi SW 16.1 mph 20.7 mph N/A   Clear
2:55 PM 63.0 °F - 50.5 °F 64% 30.00 in 10.0 mi SSW 15.0 mph 23.0 mph N/A   Clear
3:15 PM 63.3 °F - 50.9 °F 64% 30.01 in 10.0 mi SSW 18.4 mph 23.0 mph N/A   Scattered Clouds
3:35 PM 62.8 °F - 50.4 °F 64% 30.01 in 10.0 mi SW 19.6 mph 24.2 mph N/A   Scattered Clouds
3:55 PM 62.6 °F - 50.5 °F 65% 30.00 in 10.0 mi SW 18.4 mph 23.0 mph N/A   Scattered Clouds
4:15 PM 61.7 °F - 50.2 °F 66% 30.00 in 10.0 mi SSW 16.1 mph 21.9 mph N/A   Scattered Clouds
4:35 PM 61.2 °F - 50.0 °F 67% 30.00 in 10.0 mi SSW 15.0 mph - N/A   Clear
4:55 PM 60.6 °F - 49.8 °F 68% 30.00 in 10.0 mi SSW 11.5 mph 17.3 mph N/A   Clear
5:15 PM 59.4 °F - 49.5 °F 70% 30.00 in 10.0 mi SSW 13.8 mph - N/A   Clear
5:35 PM 58.1 °F - 49.5 °F 73% 30.00 in 10.0 mi SW 13.8 mph - N/A   Clear
5:55 PM 56.5 °F - 48.9 °F 76% 30.01 in 10.0 mi SW 9.2 mph - N/A   Clear
6:15 PM 55.6 °F - 48.6 °F 77% 30.02 in 10.0 mi SSW 8.1 mph - N/A   Clear
6:35 PM 54.9 °F - 48.4 °F 79% 30.02 in 10.0 mi SW 8.1 mph - N/A   Clear
6:55 PM 53.8 °F - 48.2 °F 81% 30.02 in 10.0 mi SW 8.1 mph - N/A   Clear
7:15 PM 52.5 °F - 47.8 °F 84% 30.02 in 10.0 mi SW 8.1 mph - N/A   Clear
7:35 PM 51.8 °F - 47.7 °F 86% 30.03 in 10.0 mi SW 6.9 mph - N/A   Clear
7:55 PM 51.3 °F - 47.5 °F 87% 30.04 in 10.0 mi West 5.8 mph - N/A   Clear
8:15 PM 50.2 °F - 46.6 °F 87% 30.05 in 10.0 mi Calm Calm - N/A   Clear
8:35 PM 46.4 °F - 43.7 °F 90% 30.06 in 10.0 mi Calm Calm - N/A   Clear
8:55 PM 44.4 °F - 42.6 °F 93% 30.07 in 10.0 mi Calm Calm - N/A   Clear
9:15 PM 47.1 °F - 45.9 °F 95% 30.07 in 10.0 mi WSW 3.5 mph - N/A   Clear
9:35 PM 44.2 °F - 41.9 °F 91% 30.07 in 10.0 mi Calm Calm - N/A   Clear
9:55 PM 44.8 °F 43.3 °F 43.9 °F 97% 30.07 in 10.0 mi West 3.5 mph - N/A   Clear
10:15 PM 44.1 °F 42.5 °F 43.0 °F 96% 30.07 in 10.0 mi West 3.5 mph - N/A   Clear
10:35 PM 42.8 °F 40.1 °F 41.4 °F 95% 30.08 in 10.0 mi WNW 4.6 mph - N/A   Clear
10:55 PM 43.0 °F 38.2 °F 42.1 °F 97% 30.11 in 10.0 mi NNW 8.1 mph - N/A   Clear
11:15 PM 45.9 °F 43.6 °F 43.9 °F 93% 30.11 in 10.0 mi NW 4.6 mph - N/A   Clear
11:35 PM 44.4 °F 42.0 °F 43.2 °F 95% 30.11 in 10.0 mi WSW 4.6 mph - N/A   Clear
11:55 PM 43.3 °F 40.7 °F 42.3 °F 96% 30.13 in 10.0 mi NW 4.6 mph - N/A   Clear